R9YAAM-13 Weather Reports


time (UTC)temp
F
wind
direction
speed
knots
gust
knots
rain 1hr
in
rain 24hr
in
rain mn
in
humidity
%
barometer
mb
20260502232122 48 0 0.0 0.0 0.00 0.00 0.00 54 994.0
20260502231022 48 0 0.0 0.0 0.00 0.00 0.00 54 993.8
20260502225922 49 0 0.0 0.0 0.00 0.00 0.00 53 993.7
20260502224822 49 0 0.0 0.0 0.00 0.00 0.00 53 993.6
20260502223822 49 0 0.0 0.0 0.00 0.00 0.00 53 993.4
20260502222822 49 0 0.0 0.0 0.00 0.00 0.00 52 993.5
20260502221737 50 0 0.0 0.0 0.00 0.00 0.00 52 993.3
20260502220722 50 0 0.0 0.0 0.00 0.00 0.00 52 993.3
20260502215622 50 0 0.0 0.0 0.00 0.00 0.00 52 993.2
20260502214622 51 0 0.0 0.0 0.00 0.00 0.00 51 993.0
20260502213522 51 0 0.0 0.0 0.00 0.00 0.00 50 992.8
20260502212521 51 0 0.0 0.0 0.00 0.00 0.00 49 992.7
20260502211522 52 0 0.0 0.0 0.00 0.00 0.00 49 992.5
20260502210422 52 0 0.0 0.0 0.00 0.00 0.00 49 992.4
20260502205322 52 0 0.0 0.0 0.00 0.00 0.00 48 992.3
20260502204322 53 0 0.0 0.0 0.00 0.00 0.00 48 992.0
20260502203222 53 0 0.0 0.0 0.00 0.00 0.00 47 991.8
20260502202122 53 0 0.0 0.0 0.00 0.00 0.00 46 991.7
20260502201137 54 0 0.0 0.0 0.00 0.00 0.00 45 991.5
20260502200122 54 0 0.0 0.0 0.00 0.00 0.00 44 991.5
20260502195022 54 0 0.0 0.0 0.00 0.00 0.00 46 991.4
20260502194022 54 0 0.0 0.0 0.00 0.00 0.00 47 991.3
20260502192922 55 0 0.0 0.0 0.00 0.00 0.00 46 991.2
20260502191922 55 0 0.0 0.0 0.00 0.00 0.00 46 991.1
20260502190922 56 0 0.0 0.0 0.00 0.00 0.00 45 990.9
20260502185822 56 0 0.0 0.0 0.00 0.00 0.00 44 990.8
20260502184822 56 0 0.0 0.0 0.00 0.00 0.00 44 990.7
20260502183822 56 0 0.0 0.0 0.00 0.00 0.00 43 990.7
20260502182836 57 0 0.0 0.0 0.00 0.00 0.00 42 990.6
20260502181822 57 0 0.0 0.0 0.00 0.00 0.00 40 990.3
20260502180822 57 0 0.0 0.0 0.00 0.00 0.00 40 990.3
20260502163522 59 0 0.0 0.0 0.00 0.00 0.00 35 989.1
20260502162522 59 0 0.0 0.0 0.00 0.00 0.00 35 989.0
20260502161422 60 0 0.0 0.0 0.00 0.00 0.00 34 988.7
20260502160422 61 0 0.0 0.0 0.00 0.00 0.00 34 988.6
20260502152322 62 0 0.0 0.0 0.00 0.00 0.00 33 988.3
20260502151321 63 0 0.0 0.0 0.00 0.00 0.00 33 988.1
20260502150321 63 0 0.0 0.0 0.00 0.00 0.00 32 988.1
20260502122721 70 0 0.0 0.0 0.00 0.00 0.00 23 986.1
20260502121722 70 0 0.0 0.0 0.00 0.00 0.00 23 986.0
20260502120722 71 0 0.0 0.0 0.00 0.00 0.00 22 986.0
20260502115721 72 0 0.0 0.0 0.00 0.00 0.00 23 986.0
20260502114621 73 0 0.0 0.0 0.00 0.00 0.00 21 985.8
20260502113522 74 0 0.0 0.0 0.00 0.00 0.00 20 985.8
20260502112422 74 0 0.0 0.0 0.00 0.00 0.00 19 985.6
20260502111422 75 0 0.0 0.0 0.00 0.00 0.00 20 985.6
20260502110321 75 0 0.0 0.0 0.00 0.00 0.00 21 985.4
20260502105321 76 0 0.0 0.0 0.00 0.00 0.00 21 985.4
20260502104222 77 0 0.0 0.0 0.00 0.00 0.00 22 985.4
20260502103237 77 0 0.0 0.0 0.00 0.00 0.00 22 985.3
20260502102122 78 0 0.0 0.0 0.00 0.00 0.00 20 985.3
20260502101122 77 0 0.0 0.0 0.00 0.00 0.00 21 985.1
20260502100137 79 0 0.0 0.0 0.00 0.00 0.00 19 984.8
20260502091121 80 0 0.0 0.0 0.00 0.00 0.00 14 984.6
20260502070558 79 0 0.0 0.0 0.00 0.00 0.00 25 983.6
20260502065557 78 0 0.0 0.0 0.00 0.00 0.00 24 983.6
20260502064558 78 0 0.0 0.0 0.00 0.00 0.00 23 983.5
20260502063458 78 0 0.0 0.0 0.00 0.00 0.00 22 983.5
20260502062458 78 0 0.0 0.0 0.00 0.00 0.00 21 983.6
20260502061458 78 0 0.0 0.0 0.00 0.00 0.00 20 983.6
20260502060458 78 0 0.0 0.0 0.00 0.00 0.00 19 983.6
20260502055458 78 0 0.0 0.0 0.00 0.00 0.00 18 983.8
20260502054457 80 0 0.0 0.0 0.00 0.00 0.00 16 983.6
20260502053458 79 0 0.0 0.0 0.00 0.00 0.00 17 983.7
20260502052458 78 0 0.0 0.0 0.00 0.00 0.00 17 983.7
20260502051357 78 0 0.0 0.0 0.00 0.00 0.00 16 984.0
20260502050358 79 0 0.0 0.0 0.00 0.00 0.00 16 983.8
20260502045413 79 0 0.0 0.0 0.00 0.00 0.00 16 983.6
20260502044258 78 0 0.0 0.0 0.00 0.00 0.00 16 983.4
20260502042257 78 0 0.0 0.0 0.00 0.00 0.00 15 983.2
20260502041157 78 0 0.0 0.0 0.00 0.00 0.00 16 982.9
20260502040158 77 0 0.0 0.0 0.00 0.00 0.00 17 983.3
20260502035158 77 0 0.0 0.0 0.00 0.00 0.00 17 982.9
20260502034157 76 0 0.0 0.0 0.00 0.00 0.00 18 982.9
20260502033158 76 0 0.0 0.0 0.00 0.00 0.00 19 983.1
20260502032058 74 0 0.0 0.0 0.00 0.00 0.00 19 983.1
20260502031058 73 0 0.0 0.0 0.00 0.00 0.00 20 983.4
20260502025957 73 0 0.0 0.0 0.00 0.00 0.00 20 983.4
20260502024957 73 0 0.0 0.0 0.00 0.00 0.00 20 983.5
20260502023917 72 0 0.0 0.0 0.00 0.00 0.00 6 988.9